| time (UTC) | temp F | wind direction | speed MPH | gust MPH | rain 1hr in | rain 24hr in | rain mn in | humidity % | barometer mb |
| 20260509111202 | 71 | 150 | 1.0 | 3.0 | 0.00 | 0.00 | 0.00 | 98 | 101.0 |
| 20260509110702 | 71 | 50 | 2.0 | 2.0 | 0.00 | 0.00 | 0.00 | 98 | 101.0 |
| 20260509105702 | 71 | 292 | 1.0 | 3.0 | 0.00 | 0.00 | 0.00 | 98 | 101.0 |
| 20260509105202 | 71 | 288 | 1.0 | 2.0 | 0.00 | 0.00 | 0.00 | 98 | 101.0 |
| 20260509104702 | 71 | 6 | 0.0 | 3.0 | 0.00 | 0.00 | 0.00 | 98 | 101.0 |
| 20260509104202 | 71 | 63 | 2.0 | 4.0 | 0.00 | 0.00 | 0.00 | 98 | 101.0 |
| 20260509103702 | 71 | 246 | 0.0 | 3.0 | 0.00 | 0.00 | 0.00 | 98 | 101.0 |
| 20260509103203 | 71 | 40 | 1.0 | 3.0 | 0.00 | 0.00 | 0.00 | 98 | 101.0 |
| 20260509102702 | 71 | 83 | 2.0 | 2.0 | 0.00 | 0.00 | 0.00 | 98 | 101.0 |
| 20260509102202 | 71 | 28 | 1.0 | 4.0 | 0.00 | 0.00 | 0.00 | 98 | 101.0 |
| 20260509101202 | 71 | 161 | 2.0 | 3.0 | 0.00 | 0.00 | 0.00 | 98 | 101.0 |
| 20260509100702 | 71 | 358 | 2.0 | 6.0 | 0.00 | 0.00 | 0.00 | 98 | 101.0 |
| 20260509100203 | 71 | 356 | 4.0 | 5.0 | 0.00 | 0.00 | 0.00 | 98 | 101.0 |
| 20260509095703 | 71 | 40 | 2.0 | 3.0 | 0.00 | 0.00 | 0.00 | 98 | 101.0 |
| 20260509095202 | 71 | 342 | 0.0 | 2.0 | 0.00 | 0.00 | 0.00 | 98 | 100.9 |
| 20260509094702 | 71 | 132 | 0.0 | 5.0 | 0.00 | 0.00 | 0.00 | 98 | 100.9 |
| 20260509094202 | 71 | 169 | 0.0 | 3.0 | 0.00 | 0.00 | 0.00 | 98 | 100.9 |
| 20260509093202 | 71 | 113 | 2.0 | 3.0 | 0.00 | 0.00 | 0.00 | 98 | 101.0 |
| 20260509092702 | 71 | 93 | 0.0 | 3.0 | 0.00 | 0.00 | 0.00 | 98 | 101.0 |
| 20260509091702 | 71 | 182 | 4.0 | 4.0 | 0.00 | 0.00 | 0.00 | 97 | 101.0 |
| 20260509091202 | 71 | 268 | 1.0 | 4.0 | 0.00 | 0.00 | 0.00 | 97 | 101.0 |
| 20260509090703 | 71 | 312 | 1.0 | 5.0 | 0.00 | 0.00 | 0.00 | 97 | 100.9 |
| 20260509090202 | 71 | 180 | 2.0 | 2.0 | 0.00 | 0.00 | 0.00 | 97 | 100.9 |
| 20260509084702 | 71 | 115 | 1.0 | 3.0 | 0.00 | 0.00 | 0.00 | 97 | 100.9 |
| 20260509084202 | 71 | 135 | 0.0 | 1.0 | 0.00 | 0.00 | 0.00 | 96 | 100.9 |
| 20260509083702 | 71 | 89 | 2.0 | 3.0 | 0.00 | 0.00 | 0.00 | 97 | 100.9 |
| 20260509083202 | 71 | 238 | 2.0 | 3.0 | 0.00 | 0.00 | 0.00 | 96 | 101.0 |
| 20260509082703 | 71 | 114 | 0.0 | 4.0 | 0.00 | 0.00 | 0.00 | 96 | 101.0 |
| 20260509081702 | 71 | 206 | 1.0 | 2.0 | 0.00 | 0.00 | 0.00 | 96 | 101.0 |
| 20260509081202 | 71 | 22 | 0.0 | 1.0 | 0.00 | 0.00 | 0.00 | 96 | 101.0 |
| 20260509080702 | 71 | 135 | 0.0 | 0.0 | 0.00 | 0.00 | 0.00 | 96 | 101.0 |
| 20260509080201 | 71 | 135 | 0.0 | 1.0 | 0.00 | 0.00 | 0.00 | 96 | 101.0 |
| 20260509075702 | 71 | 129 | 0.0 | 0.0 | 0.00 | 0.00 | 0.00 | 95 | 101.0 |
| 20260509075202 | 71 | 135 | 0.0 | 0.0 | 0.00 | 0.00 | 0.00 | 95 | 101.0 |
| 20260509074703 | 72 | 115 | 0.0 | 1.0 | 0.00 | 0.00 | 0.00 | 95 | 101.0 |
| 20260509074202 | 72 | 98 | 0.0 | 1.0 | 0.00 | 0.00 | 0.00 | 95 | 101.0 |
| 20260509073702 | 72 | 116 | 0.0 | 1.0 | 0.00 | 0.00 | 0.00 | 94 | 101.0 |
| 20260509073202 | 72 | 44 | 0.0 | 2.0 | 0.00 | 0.00 | 0.00 | 94 | 101.0 |
| 20260509072702 | 72 | 153 | 0.0 | 2.0 | 0.00 | 0.00 | 0.00 | 94 | 101.0 |
| 20260509071702 | 72 | 185 | 0.0 | 2.0 | 0.00 | 0.00 | 0.00 | 93 | 101.0 |
| 20260509071202 | 72 | 224 | 0.0 | 0.0 | 0.00 | 0.00 | 0.00 | 93 | 101.0 |
| 20260509070702 | 72 | 246 | 0.0 | 1.0 | 0.00 | 0.00 | 0.00 | 93 | 101.0 |
| 20260509070202 | 72 | 152 | 0.0 | 1.0 | 0.00 | 0.00 | 0.00 | 93 | 101.0 |
| 20260509065702 | 72 | 227 | 1.0 | 1.0 | 0.00 | 0.00 | 0.00 | 93 | 101.0 |
| 20260509065202 | 72 | 192 | 2.0 | 3.0 | 0.00 | 0.00 | 0.00 | 93 | 101.0 |
| 20260509064702 | 72 | 171 | 0.0 | 0.0 | 0.00 | 0.00 | 0.00 | 93 | 101.0 |
| 20260509064202 | 72 | 190 | 1.0 | 2.0 | 0.00 | 0.00 | 0.00 | 93 | 101.0 |
| 20260509063702 | 72 | 204 | 2.0 | 4.0 | 0.00 | 0.00 | 0.00 | 92 | 101.0 |
| 20260509062702 | 72 | 177 | 3.0 | 5.0 | 0.00 | 0.00 | 0.00 | 92 | 101.0 |
| 20260509062202 | 72 | 223 | 1.0 | 3.0 | 0.00 | 0.00 | 0.00 | 92 | 101.0 |
| 20260509061702 | 72 | 180 | 2.0 | 2.0 | 0.00 | 0.00 | 0.00 | 92 | 101.0 |
| 20260509061203 | 72 | 123 | 1.0 | 3.0 | 0.00 | 0.00 | 0.00 | 92 | 101.0 |
| 20260509060702 | 73 | 238 | 1.0 | 4.0 | 0.00 | 0.00 | 0.00 | 91 | 101.0 |
| 20260509060202 | 73 | 190 | 1.0 | 1.0 | 0.00 | 0.00 | 0.00 | 91 | 101.0 |
| 20260509055702 | 73 | 159 | 1.0 | 4.0 | 0.00 | 0.00 | 0.00 | 91 | 101.0 |
| 20260509055202 | 73 | 122 | 0.0 | 6.0 | 0.00 | 0.00 | 0.00 | 91 | 101.0 |
| 20260509054702 | 73 | 117 | 1.0 | 9.0 | 0.00 | 0.00 | 0.00 | 91 | 101.0 |
| 20260509054202 | 73 | 202 | 4.0 | 6.0 | 0.00 | 0.00 | 0.00 | 91 | 101.0 |
| 20260509053702 | 73 | 174 | 0.0 | 5.0 | 0.00 | 0.00 | 0.00 | 91 | 101.0 |
| 20260509052704 | 73 | 145 | 2.0 | 3.0 | 0.00 | 0.00 | 0.00 | 91 | 101.0 |
| 20260509051702 | 73 | 156 | 1.0 | 6.0 | 0.00 | 0.00 | 0.00 | 90 | 100.9 |
| 20260509051202 | 73 | 167 | 1.0 | 6.0 | 0.00 | 0.00 | 0.00 | 89 | 100.9 |
| 20260509050704 | 73 | 190 | 5.0 | 5.0 | 0.00 | 0.00 | 0.00 | 89 | 101.0 |
| 20260509050203 | 73 | 168 | 2.0 | 2.0 | 0.00 | 0.00 | 0.00 | 89 | 101.0 |
| 20260509045702 | 73 | 158 | 1.0 | 2.0 | 0.00 | 0.00 | 0.00 | 89 | 101.0 |
| 20260509045202 | 73 | 141 | 0.0 | 2.0 | 0.00 | 0.00 | 0.00 | 89 | 101.0 |
| 20260509044702 | 73 | 160 | 1.0 | 2.0 | 0.00 | 0.00 | 0.00 | 88 | 101.0 |
| 20260509044202 | 73 | 180 | 4.0 | 4.0 | 0.00 | 0.00 | 0.00 | 88 | 101.0 |
| 20260509043702 | 73 | 194 | 2.0 | 5.0 | 0.00 | 0.00 | 0.00 | 88 | 101.0 |
| 20260509043202 | 73 | 192 | 2.0 | 4.0 | 0.00 | 0.00 | 0.00 | 88 | 101.0 |
| 20260509042702 | 73 | 146 | 1.0 | 2.0 | 0.00 | 0.00 | 0.00 | 88 | 101.0 |
| 20260509041703 | 73 | 194 | 2.0 | 4.0 | 0.00 | 0.00 | 0.00 | 88 | 101.0 |
| 20260509041202 | 73 | 147 | 0.0 | 4.0 | 0.00 | 0.00 | 0.00 | 88 | 101.0 |
| 20260509040202 | 73 | 117 | 0.0 | 3.0 | 0.00 | 0.00 | 0.00 | 88 | 100.9 |
| 20260509035702 | 73 | 149 | 0.0 | 3.0 | 0.00 | 0.00 | 0.00 | 88 | 100.9 |
| 20260509035202 | 73 | 195 | 0.0 | 0.0 | 0.00 | 0.00 | 0.00 | 88 | 100.9 |
| 20260509034702 | 73 | 188 | 1.0 | 2.0 | 0.00 | 0.00 | 0.00 | 88 | 100.9 |
| 20260509034202 | 73 | 224 | 0.0 | 4.0 | 0.00 | 0.00 | 0.00 | 88 | 100.9 |
| 20260509033702 | 72 | 198 | 3.0 | 3.0 | 0.00 | 0.00 | 0.00 | 88 | 100.9 |
| 20260509033203 | 72 | 197 | 2.0 | 3.0 | 0.00 | 0.00 | 0.00 | 89 | 101.0 |
| 20260509032702 | 72 | 190 | 1.0 | 3.0 | 0.00 | 0.00 | 0.00 | 89 | 101.0 |
| 20260509032202 | 72 | 185 | 2.0 | 3.0 | 0.00 | 0.00 | 0.00 | 88 | 100.9 |
| 20260509031703 | 73 | 170 | 0.0 | 4.0 | 0.00 | 0.00 | 0.00 | 88 | 100.9 |
| 20260509030702 | 73 | 209 | 1.0 | 2.0 | 0.00 | 0.00 | 0.00 | 88 | 100.9 |
| 20260509030202 | 73 | 218 | 1.0 | 3.0 | 0.00 | 0.00 | 0.00 | 87 | 100.9 |
| 20260509025702 | 73 | 224 | 0.0 | 3.0 | 0.00 | 0.00 | 0.00 | 87 | 100.9 |
| 20260509025203 | 73 | 187 | 0.0 | 1.0 | 0.00 | 0.00 | 0.00 | 87 | 100.9 |
| 20260509024702 | 73 | 101 | 0.0 | 3.0 | 0.00 | 0.00 | 0.00 | 87 | 100.9 |
| 20260509024202 | 73 | 190 | 0.0 | 1.0 | 0.00 | 0.00 | 0.00 | 87 | 100.9 |
| 20260509023702 | 73 | 104 | 0.0 | 0.0 | 0.00 | 0.00 | 0.00 | 86 | 100.9 |
| 20260509022702 | 74 | 104 | 0.0 | 0.0 | 0.00 | 0.00 | 0.00 | 86 | 100.9 |
| 20260509022202 | 74 | 124 | 0.0 | 2.0 | 0.00 | 0.00 | 0.00 | 85 | 100.9 |
| 20260509021202 | 74 | 103 | 1.0 | 2.0 | 0.00 | 0.00 | 0.00 | 84 | 100.9 |
| 20260509020701 | 74 | 41 | 1.0 | 3.0 | 0.00 | 0.00 | 0.00 | 84 | 100.9 |
| 20260509020202 | 74 | 187 | 3.0 | 3.0 | 0.00 | 0.00 | 0.00 | 84 | 100.9 |
| 20260509015702 | 75 | 135 | 0.0 | 3.0 | 0.00 | 0.00 | 0.00 | 83 | 100.9 |
| 20260509015202 | 75 | 135 | 0.0 | 2.0 | 0.00 | 0.00 | 0.00 | 83 | 100.9 |
| 20260509014702 | 75 | 144 | 0.0 | 5.0 | 0.00 | 0.00 | 0.00 | 83 | 100.9 |
| 20260509014201 | 75 | 155 | 1.0 | 4.0 | 0.00 | 0.00 | 0.00 | 82 | 100.9 |
| 20260509013702 | 75 | 160 | 1.0 | 2.0 | 0.00 | 0.00 | 0.00 | 82 | 100.9 |
| 20260509012702 | 76 | 168 | 2.0 | 5.0 | 0.00 | 0.00 | 0.00 | 80 | 100.9 |
| 20260509012203 | 76 | 198 | 2.0 | 4.0 | 0.00 | 0.00 | 0.00 | 80 | 100.9 |
| 20260509011703 | 76 | 183 | 3.0 | 5.0 | 0.00 | 0.00 | 0.00 | 79 | 100.8 |
| 20260509011202 | 76 | 191 | 0.0 | 3.0 | 0.00 | 0.00 | 0.00 | 79 | 100.8 |
| 20260509010702 | 76 | 112 | 1.0 | 5.0 | 0.00 | 0.00 | 0.00 | 79 | 100.8 |
| 20260509010202 | 76 | 333 | 0.0 | 2.0 | 0.00 | 0.00 | 0.00 | 79 | 100.8 |
| 20260509005702 | 76 | 129 | 0.0 | 3.0 | 0.00 | 0.00 | 0.00 | 79 | 100.8 |
| 20260509005203 | 76 | 44 | 0.0 | 1.0 | 0.00 | 0.00 | 0.00 | 79 | 100.8 |
| 20260509004704 | 76 | 115 | 1.0 | 2.0 | 0.00 | 0.00 | 0.00 | 79 | 100.8 |
| 20260509003202 | 76 | 89 | 0.0 | 1.0 | 0.00 | 0.00 | 0.00 | 78 | 100.8 |
| 20260509002702 | 76 | 113 | 1.0 | 2.0 | 0.00 | 0.00 | 0.00 | 78 | 100.8 |
| 20260509001702 | 76 | 122 | 0.0 | 4.0 | 0.00 | 0.00 | 0.00 | 78 | 100.8 |
| 20260509001202 | 77 | 182 | 1.0 | 1.0 | 0.00 | 0.00 | 0.00 | 77 | 100.8 |
| 20260509000702 | 77 | 242 | 0.0 | 1.0 | 0.00 | 0.00 | 0.00 | 77 | 100.8 |
| 20260509000204 | 77 | 304 | 0.0 | 1.0 | 0.00 | 0.00 | 0.00 | 77 | 100.8 |
| 20260508235702 | 77 | 202 | 1.0 | 5.0 | 0.00 | 0.00 | 0.00 | 77 | 100.8 |
| 20260508235202 | 77 | 119 | 0.0 | 1.0 | 0.00 | 0.00 | 0.00 | 77 | 100.8 |
| 20260508234702 | 77 | 180 | 2.0 | 4.0 | 0.00 | 0.00 | 0.00 | 77 | 100.8 |
| 20260508234202 | 77 | 142 | 1.0 | 2.0 | 0.00 | 0.00 | 0.00 | 77 | 100.8 |
| 20260508233702 | 77 | 207 | 2.0 | 2.0 | 0.00 | 0.00 | 0.00 | 77 | 100.8 |
| 20260508233202 | 77 | 185 | 0.0 | 2.0 | 0.00 | 0.00 | 0.00 | 77 | 100.8 |
| 20260508232702 | 76 | 244 | 1.0 | 2.0 | 0.00 | 0.00 | 0.00 | 77 | 100.8 |
| 20260508232202 | 76 | 134 | 1.0 | 1.0 | 0.00 | 0.00 | 0.00 | 77 | 100.8 |
| 20260508231703 | 77 | 119 | 1.0 | 4.0 | 0.00 | 0.00 | 0.00 | 77 | 100.8 |
| 20260508231202 | 76 | 89 | 0.0 | 2.0 | 0.00 | 0.00 | 0.00 | 77 | 100.8 |
| 20260508230702 | 76 | 113 | 1.0 | 2.0 | 0.00 | 0.00 | 0.00 | 77 | 100.8 |
| 20260508230203 | 77 | 124 | 2.0 | 2.0 | 0.00 | 0.00 | 0.00 | 77 | 100.8 |
| 20260508225702 | 76 | 118 | 0.0 | 2.0 | 0.00 | 0.00 | 0.00 | 77 | 100.8 |
| 20260508225202 | 76 | 119 | 0.0 | 1.0 | 0.00 | 0.00 | 0.00 | 76 | 100.8 |
| 20260508224702 | 77 | 200 | 1.0 | 3.0 | 0.00 | 0.00 | 0.00 | 76 | 100.8 |
| 20260508224203 | 77 | 113 | 1.0 | 2.0 | 0.00 | 0.00 | 0.00 | 76 | 100.8 |
| 20260508223702 | 77 | 180 | 1.0 | 3.0 | 0.00 | 0.00 | 0.00 | 75 | 100.8 |
| 20260508223202 | 77 | 126 | 1.0 | 3.0 | 0.00 | 0.00 | 0.00 | 75 | 100.9 |
| 20260508222702 | 77 | 44 | 0.0 | 2.0 | 0.00 | 0.00 | 0.00 | 75 | 100.9 |
| 20260508222202 | 78 | 140 | 0.0 | 3.0 | 0.00 | 0.00 | 0.00 | 73 | 100.9 |
| 20260508221702 | 78 | 104 | 1.0 | 1.0 | 0.00 | 0.00 | 0.00 | 74 | 100.9 |
| 20260508221203 | 77 | 174 | 5.0 | 5.0 | 0.00 | 0.00 | 0.00 | 73 | 100.9 |
| 20260508220703 | 77 | 241 | 0.0 | 2.0 | 0.00 | 0.00 | 0.00 | 72 | 100.9 |
| 20260508215702 | 79 | 135 | 1.0 | 2.0 | 0.00 | 0.00 | 0.00 | 69 | 100.8 |
| 20260508214702 | 79 | 239 | 2.0 | 3.0 | 0.00 | 0.00 | 0.00 | 70 | 100.8 |
| 20260508214202 | 79 | 189 | 6.0 | 6.0 | 0.00 | 0.00 | 0.00 | 70 | 100.8 |
| 20260508213702 | 77 | 216 | 1.0 | 2.0 | 0.00 | 0.00 | 0.00 | 71 | 100.8 |
| 20260508213202 | 77 | 193 | 2.0 | 3.0 | 0.00 | 0.00 | 0.00 | 72 | 100.9 |
| 20260508212702 | 77 | 109 | 1.0 | 2.0 | 0.00 | 0.00 | 0.00 | 72 | 100.9 |
| 20260508212202 | 78 | 198 | 0.0 | 3.0 | 0.00 | 0.00 | 0.00 | 70 | 100.9 |
| 20260508211702 | 79 | 211 | 2.0 | 2.0 | 0.00 | 0.00 | 0.00 | 70 | 101.0 |
| 20260508211203 | 78 | 115 | 2.0 | 2.0 | 0.00 | 0.00 | 0.00 | 70 | 101.0 |
| 20260508210702 | 77 | 154 | 0.0 | 2.0 | 0.00 | 0.00 | 0.00 | 70 | 101.0 |
| 20260508210202 | 77 | 102 | 1.0 | 3.0 | 0.00 | 0.00 | 0.00 | 72 | 100.9 |
| 20260508205202 | 76 | 243 | 1.0 | 3.0 | 0.00 | 0.00 | 0.00 | 72 | 100.9 |
| 20260508204702 | 76 | 191 | 3.0 | 4.0 | 0.00 | 0.00 | 0.00 | 73 | 100.9 |
| 20260508204202 | 77 | 133 | 0.0 | 2.0 | 0.00 | 0.00 | 0.00 | 70 | 100.9 |
| 20260508203703 | 77 | 64 | 2.0 | 3.0 | 0.00 | 0.00 | 0.00 | 70 | 100.9 |
| 20260508203201 | 76 | 129 | 0.0 | 2.0 | 0.00 | 0.00 | 0.00 | 70 | 101.0 |
| 20260508202702 | 76 | 345 | 1.0 | 2.0 | 0.00 | 0.00 | 0.00 | 71 | 101.0 |
| 20260508202202 | 75 | 17 | 1.0 | 3.0 | 0.00 | 0.00 | 0.00 | 71 | 101.0 |
| 20260508201202 | 75 | 41 | 2.0 | 4.0 | 0.00 | 0.00 | 0.00 | 72 | 101.0 |
| 20260508200702 | 74 | 75 | 1.0 | 2.0 | 0.00 | 0.00 | 0.00 | 74 | 101.0 |
| 20260508200202 | 74 | 170 | 0.0 | 1.0 | 0.00 | 0.00 | 0.00 | 74 | 101.0 |
| 20260508195703 | 75 | 87 | 0.0 | 1.0 | 0.00 | 0.00 | 0.00 | 73 | 101.0 |
| 20260508195202 | 75 | 157 | 2.0 | 2.0 | 0.00 | 0.00 | 0.00 | 72 | 101.0 |
| 20260508194702 | 75 | 297 | 0.0 | 2.0 | 0.00 | 0.00 | 0.00 | 72 | 101.0 |
| 20260508194203 | 76 | 168 | 0.0 | 4.0 | 0.00 | 0.00 | 0.00 | 71 | 101.0 |
| 20260508193702 | 76 | 142 | 0.0 | 1.0 | 0.00 | 0.00 | 0.00 | 70 | 101.0 |
| 20260508193202 | 77 | 20 | 1.0 | 3.0 | 0.00 | 0.00 | 0.00 | 69 | 101.0 |
| 20260508192702 | 75 | 103 | 0.0 | 1.0 | 0.00 | 0.00 | 0.00 | 70 | 101.0 |
| 20260508191703 | 75 | 177 | 2.0 | 5.0 | 0.00 | 0.00 | 0.00 | 71 | 101.0 |
| 20260508190702 | 75 | 140 | 1.0 | 2.0 | 0.00 | 0.00 | 0.00 | 69 | 101.0 |
| 20260508190203 | 76 | 143 | 1.0 | 6.0 | 0.00 | 0.00 | 0.00 | 68 | 101.0 |
| 20260508185702 | 74 | 310 | 1.0 | 3.0 | 0.00 | 0.00 | 0.00 | 68 | 101.0 |
| 20260508185202 | 76 | 195 | 2.0 | 4.0 | 0.00 | 0.00 | 0.00 | 68 | 101.0 |
| 20260508184702 | 76 | 118 | 1.0 | 5.0 | 0.00 | 0.00 | 0.00 | 68 | 101.0 |
| 20260508184202 | 77 | 17 | 1.0 | 5.0 | 0.00 | 0.00 | 0.00 | 67 | 101.0 |
| 20260508183702 | 75 | 218 | 0.0 | 2.0 | 0.00 | 0.00 | 0.00 | 68 | 101.0 |
| 20260508183202 | 75 | 96 | 1.0 | 2.0 | 0.00 | 0.00 | 0.00 | 66 | 101.1 |
| 20260508182702 | 75 | 214 | 0.0 | 3.0 | 0.00 | 0.00 | 0.00 | 67 | 101.1 |
| 20260508182203 | 74 | 62 | 1.0 | 2.0 | 0.00 | 0.00 | 0.00 | 70 | 101.1 |
| 20260508181702 | 74 | 10 | 2.0 | 2.0 | 0.00 | 0.00 | 0.00 | 70 | 101.1 |
| 20260508181202 | 73 | 320 | 0.0 | 4.0 | 0.00 | 0.00 | 0.00 | 70 | 101.1 |
| 20260508180703 | 73 | 11 | 2.0 | 3.0 | 0.00 | 0.00 | 0.00 | 70 | 101.1 |
| 20260508180202 | 73 | 137 | 1.0 | 4.0 | 0.00 | 0.00 | 0.00 | 69 | 101.1 |
| 20260508175702 | 73 | 89 | 0.0 | 4.0 | 0.00 | 0.00 | 0.00 | 70 | 101.1 |
| 20260508175202 | 72 | 36 | 2.0 | 2.0 | 0.00 | 0.00 | 0.00 | 70 | 101.1 |
| 20260508174202 | 72 | 238 | 0.0 | 2.0 | 0.00 | 0.00 | 0.00 | 70 | 101.1 |
| 20260508173701 | 71 | 26 | 1.0 | 2.0 | 0.00 | 0.00 | 0.00 | 72 | 101.1 |
| 20260508173202 | 70 | 129 | 1.0 | 3.0 | 0.00 | 0.00 | 0.00 | 74 | 101.1 |
| 20260508172202 | 70 | 40 | 2.0 | 2.0 | 0.00 | 0.00 | 0.00 | 74 | 101.1 |
| 20260508171702 | 69 | 101 | 2.0 | 2.0 | 0.00 | 0.00 | 0.00 | 74 | 101.1 |
| 20260508171202 | 68 | 22 | 3.0 | 3.0 | 0.00 | 0.00 | 0.00 | 76 | 101.1 |
| 20260508165703 | 68 | 96 | 1.0 | 2.0 | 0.00 | 0.00 | 0.00 | 76 | 101.2 |
| 20260508165202 | 67 | 65 | 1.0 | 4.0 | 0.00 | 0.00 | 0.00 | 76 | 101.2 |
| 20260508164703 | 68 | 349 | 1.0 | 2.0 | 0.00 | 0.00 | 0.00 | 76 | 101.2 |
| 20260508164201 | 68 | 33 | 0.0 | 2.0 | 0.00 | 0.00 | 0.00 | 75 | 101.2 |
| 20260508163201 | 68 | 26 | 2.0 | 3.0 | 0.00 | 0.00 | 0.00 | 77 | 101.2 |
| 20260508162703 | 67 | 342 | 1.0 | 2.0 | 0.00 | 0.00 | 0.00 | 77 | 101.2 |
| 20260508161702 | 68 | 60 | 2.0 | 3.0 | 0.00 | 0.00 | 0.00 | 75 | 101.2 |
| 20260508161202 | 67 | 198 | 2.0 | 2.0 | 0.00 | 0.00 | 0.00 | 75 | 101.2 |
| 20260508160702 | 67 | 260 | 1.0 | 1.0 | 0.00 | 0.00 | 0.00 | 76 | 101.2 |
| 20260508160203 | 67 | 285 | 0.0 | 2.0 | 0.00 | 0.00 | 0.00 | 75 | 101.2 |
| 20260508155702 | 66 | 248 | 1.0 | 2.0 | 0.00 | 0.00 | 0.00 | 77 | 101.2 |
| 20260508155202 | 66 | 269 | 0.0 | 2.0 | 0.00 | 0.00 | 0.00 | 77 | 101.2 |
| 20260508154702 | 66 | 230 | 0.0 | 1.0 | 0.00 | 0.00 | 0.00 | 76 | 101.2 |
| 20260508153702 | 66 | 224 | 0.0 | 2.0 | 0.00 | 0.00 | 0.00 | 78 | 101.2 |
| 20260508153202 | 66 | 240 | 0.0 | 2.0 | 0.00 | 0.00 | 0.00 | 77 | 101.2 |
| 20260508152702 | 66 | 144 | 0.0 | 3.0 | 0.00 | 0.00 | 0.00 | 77 | 101.2 |
| 20260508152202 | 64 | 131 | 1.0 | 3.0 | 0.00 | 0.00 | 0.00 | 78 | 101.2 |
| 20260508151703 | 65 | 141 | 0.0 | 2.0 | 0.00 | 0.00 | 0.00 | 78 | 101.2 |
| 20260508151201 | 65 | 158 | 1.0 | 1.0 | 0.00 | 0.00 | 0.00 | 78 | 101.2 |
| 20260508150702 | 65 | 262 | 1.0 | 2.0 | 0.00 | 0.00 | 0.00 | 78 | 101.2 |
| 20260508145702 | 65 | 63 | 0.0 | 2.0 | 0.00 | 0.00 | 0.00 | 78 | 101.2 |
| 20260508145202 | 64 | 75 | 0.0 | 2.0 | 0.00 | 0.00 | 0.00 | 79 | 101.2 |
| 20260508144704 | 64 | 23 | 0.0 | 1.0 | 0.00 | 0.00 | 0.00 | 80 | 101.2 |
| 20260508144202 | 64 | 79 | 1.0 | 2.0 | 0.00 | 0.00 | 0.00 | 79 | 101.2 |
| 20260508143702 | 64 | 128 | 0.0 | 2.0 | 0.00 | 0.00 | 0.00 | 78 | 101.2 |
| 20260508143202 | 64 | 133 | 0.0 | 2.0 | 0.00 | 0.00 | 0.00 | 78 | 101.2 |
| 20260508142702 | 64 | 94 | 2.0 | 2.0 | 0.00 | 0.00 | 0.00 | 77 | 101.2 |
| 20260508142202 | 64 | 28 | 1.0 | 4.0 | 0.00 | 0.00 | 0.00 | 78 | 101.2 |
| 20260508141703 | 63 | 88 | 1.0 | 1.0 | 0.00 | 0.00 | 0.00 | 79 | 101.2 |
| 20260508140702 | 63 | 40 | 2.0 | 4.0 | 0.00 | 0.00 | 0.00 | 79 | 101.2 |
| 20260508140202 | 64 | 108 | 3.0 | 4.0 | 0.00 | 0.00 | 0.00 | 79 | 101.3 |
| 20260508135202 | 62 | 156 | 1.0 | 2.0 | 0.00 | 0.00 | 0.00 | 81 | 101.3 |
| 20260508134702 | 63 | 175 | 3.0 | 3.0 | 0.00 | 0.00 | 0.00 | 80 | 101.3 |
| 20260508134203 | 62 | 107 | 1.0 | 3.0 | 0.00 | 0.00 | 0.00 | 82 | 101.3 |
| 20260508133703 | 62 | 324 | 0.0 | 3.0 | 0.00 | 0.00 | 0.00 | 82 | 101.3 |
| 20260508132702 | 61 | 89 | 0.0 | 3.0 | 0.00 | 0.00 | 0.00 | 83 | 101.3 |
| 20260508132202 | 61 | 201 | 0.0 | 2.0 | 0.00 | 0.00 | 0.00 | 82 | 101.3 |
| 20260508131702 | 61 | 76 | 1.0 | 2.0 | 0.00 | 0.00 | 0.00 | 82 | 101.3 |
| 20260508131202 | 61 | 231 | 1.0 | 2.0 | 0.00 | 0.00 | 0.00 | 82 | 101.3 |
| 20260508130703 | 61 | 113 | 0.0 | 2.0 | 0.00 | 0.00 | 0.00 | 83 | 101.3 |
| 20260508130202 | 61 | 112 | 2.0 | 2.0 | 0.00 | 0.00 | 0.00 | 83 | 101.3 |
| 20260508125703 | 61 | 124 | 1.0 | 2.0 | 0.00 | 0.00 | 0.00 | 83 | 101.3 |
| 20260508125202 | 61 | 195 | 0.0 | 2.0 | 0.00 | 0.00 | 0.00 | 83 | 101.3 |
| 20260508124202 | 61 | 274 | 0.0 | 2.0 | 0.00 | 0.00 | 0.00 | 83 | 101.3 |
| 20260508123703 | 61 | 127 | 1.0 | 3.0 | 0.00 | 0.00 | 0.00 | 83 | 101.3 |
| 20260508123202 | 60 | 86 | 1.0 | 4.0 | 0.00 | 0.00 | 0.00 | 84 | 101.3 |
| 20260508122702 | 61 | 106 | 1.0 | 3.0 | 0.00 | 0.00 | 0.00 | 83 | 101.3 |
| 20260508122202 | 61 | 128 | 1.0 | 2.0 | 0.00 | 0.00 | 0.00 | 83 | 101.3 |
| 20260508121702 | 60 | 101 | 1.0 | 2.0 | 0.00 | 0.00 | 0.00 | 83 | 101.3 |
| 20260508121203 | 60 | 87 | 1.0 | 3.0 | 0.00 | 0.00 | 0.00 | 83 | 101.3 |
| 20260508120702 | 60 | 10 | 1.0 | 2.0 | 0.00 | 0.00 | 0.00 | 84 | 101.3 |
| 20260508120203 | 60 | 136 | 1.0 | 2.0 | 0.00 | 0.00 | 0.00 | 84 | 101.3 |
| 20260508115702 | 60 | 73 | 2.0 | 2.0 | 0.00 | 0.00 | 0.00 | 84 | 101.3 |
| 20260508115202 | 60 | 147 | 0.0 | 1.0 | 0.00 | 0.00 | 0.00 | 84 | 101.3 |
| 20260508114702 | 60 | 140 | 0.0 | 2.0 | 0.00 | 0.00 | 0.00 | 84 | 101.3 |
| 20260508114202 | 60 | 47 | 2.0 | 7.0 | 0.00 | 0.00 | 0.00 | 84 | 101.3 |
| 20260508113702 | 60 | 36 | 4.0 | 4.0 | 0.00 | 0.00 | 0.00 | 84 | 101.3 |
| 20260508113202 | 60 | 86 | 2.0 | 3.0 | 0.00 | 0.00 | 0.00 | 84 | 101.3 |
| 20260508112703 | 60 | 54 | 1.0 | 2.0 | 0.00 | 0.00 | 0.00 | 84 | 101.3 |
| 20260508112202 | 60 | 101 | 0.0 | 2.0 | 0.00 | 0.00 | 0.00 | 84 | 101.3 |
| 20260508111702 | 60 | 54 | 3.0 | 5.0 | 0.00 | 0.00 | 0.00 | 84 | 101.3 |